Dewpoint
53 50 43 37 32 20 20 21 23 25 27 31 32 32 39 44 38 41 52 53 50 58 64 65 68 67 67 66 68 69 70 71 71 71 71 70 70 70 70 70 69 69 69 69 70 69 68 68 69
45 37 37 35 22 17 19 21 22 25 29 33 33 37 43 45 48 50 54 55 55 57 62 66 69 68 67 66 66 67 68 69 70 70 70 70 70 69 69 68 68 68 68 69 69 69 68 68 67
49 37 33 24 19 17 18 21 23 24 28 30 35 45 46 47 50 52 57 58 58 61 68 69 69 69 68 67 66 65 67 68 68 68 68 68 68 67 67 67 67 67 67 67 67 67 67 68 67
34 31 27 20 20 21 20 21 22 26 30 32 42 45 48 52 53 56 57 59 60 62 65 68 69 69 69 69 68 67 67 66 67 68 68 67 67 67 67 68 68 67 67 67 67 68 68 68 67
29 26 21 19 19 20 20 21 21 27 31 39 45 48 52 55 55 57 59 59 59 60 63 66 68 68 68 69 69 69 68 67 67 67 67 68 68 68 69 69 69 69 68 67 67 68 69 68 68
22 24 20 17 19 20 20 20 20 25 36 43 47 51 52 53 49 50 54 59 62 63 62 62 67 68 67 66 68 68 69 68 68 67 67 67 67 68 69 70 69 69 69 69 68 68 67 68 68
22 21 19 17 20 19 19 20 27 35 41 47 47 50 51 47 45 41 40 42 44 45 48 51 55 65 65 61 65 66 67 67 67 68 68 68 67 67 67 67 68 69 69 68 68 68 67 67 67
21 18 18 17 18 19 19 29 39 41 44 48 51 51 48 43 40 38 37 36 38 40 41 42 43 42 42 44 56 61 62 64 64 64 62 64 67 67 67 66 66 66 67 68 68 68 67 67 67
15 12 13 16 16 21 23 38 42 44 46 47 47 46 39 37 36 36 36 35 35 34 38 42 40 40 39 38 41 44 45 47 49 51 52 51 54 57 61 63 65 66 66 67 67 67 67 67 66
15 13 17 18 20 28 21 27 39 37 38 36 35 35 34 34 33 33 32 32 32 32 32 37 41 40 35 34 38 39 39 41 42 44 47 45 49 49 51 56 60 63 64 65 66 66 66 66 64
19 18 19 19 19 32 30 37 38 32 31 32 31 31 31 30 30 30 31 32 33 34 33 34 39 43 41 35 35 36 35 39 39 41 46 46 45 45 45 47 48 50 56 62 61 60 62 62 62
17 22 19 21 32 35 34 34 32 30 29 29 29 28 27 26 27 28 30 33 34 35 36 36 40 42 43 40 38 37 39 38 39 40 45 47 45 44 46 44 43 43 44 57 55 56 57 57 60
22 28 32 34 36 35 33 31 30 28 29 29 27 27 26 26 27 28 28 31 34 34 39 39 39 42 42 41 41 39 41 39 40 39 41 46 45 45 44 44 42 42 41 43 44 45 52 56 57
18 20 25 32 34 35 33 33 30 29 29 28 26 26 26 26 27 27 27 27 32 33 37 40 39 43 43 42 42 40 40 40 38 39 40 44 45 46 43 42 41 41 43 46 44 41 42 49 56
20 20 22 27 30 31 30 29 29 29 29 27 26 25 24 23 23 24 26 27 32 33 37 39 39 42 43 42 40 39 39 39 37 38 40 41 43 43 43 41 41 42 45 44 43 42 41 41 43
19 20 21 23 21 26 22 27 29 29 26 25 25 22 22 23 25 26 27 30 31 35 38 38 41 43 43 42 40 39 39 39 37 37 38 42 41 41 41 39 40 42 41 40 41 42 42 42 41
21 17 17 20 22 19 19 28 29 27 25 24 22 22 23 24 25 28 31 33 34 37 38 39 41 41 41 40 39 39 39 38 37 37 39 39 38 39 40 39 40 40 39 39 40 41 42 43 42
16 14 16 19 20 21 24 26 28 25 23 22 22 24 24 23 23 25 27 32 36 37 38 39 39 40 39 38 38 37 36 36 36 35 36 37 37 38 38 37 38 38 38 39 39 40 40 40 41
10 9 16 20 24 23 24 25 23 21 22 22 23 24 24 23 24 26 28 30 37 37 37 39 39 40 39 36 36 35 34 34 34 33 34 35 35 35 35 35 35 36 36 38 36 36 37 38 39
11 11 16 20 23 22 21 19 19 20 21 23 24 24 24 23 25 26 30 34 36 36 38 39 38 37 37 36 34 34 33 32 32 32 32 33 33 34 33 33 34 34 35 35 34 33 34 34 35
4 2 15 12 21 22 19 18 19 19 22 23 24 25 24 23 25 24 32 35 35 35 37 36 36 36 36 36 33 32 31 30 30 30 29 30 31 31 32 32 32 33 33 33 33 32 32 31 31
7 2 -4 14 15 13 20 8 20 18 21 22 25 26 24 24 25 23 30 34 34 34 35 36 37 35 34 34 32 31 29 28 29 28 28 29 30 30 31 32 32 32 33 32 32 31 33 33 30
11 7 0 8 13 12 10 14 12 18 19 21 24 24 23 24 24 23 24 31 34 34 35 37 35 34 33 32 31 30 29 28 27 26 26 28 29 29 30 32 32 31 31 31 31 32 33 34 33
9 8 7 6 9 8 6 10 17 20 20 22 24 23 22 24 24 24 26 27 31 35 35 34 34 33 32 31 30 29 28 26 24 23 22 27 28 29 28 28 31 33 30 30 31 33 32 32 33
9 8 1 3 4 2 5 0 15 23 24 24 23 22 23 24 26 26 26 28 32 34 34 34 32 31 30 30 29 29 27 24 21 22 22 23 27 27 26 28 29 31 29 30 31 33 31 32 32
6 3 -2 -4 -8 -6 3 -6 18 23 25 23 22 22 23 23 26 27 28 31 34 34 35 33 31 29 29 28 28 27 27 22 21 22 22 21 26 28 27 28 28 29 29 29 29 32 32 31 31
9 1 8 -1 -1 3 -4 18 21 23 23 23 22 22 23 24 26 27 29 33 33 34 34 31 30 28 28 28 27 26 24 24 21 20 21 21 23 24 27 26 27 26 26 30 30 30 31 31 31
4 7 4 7 1 0 -6 -5 15 21 21 22 22 23 24 25 26 28 32 32 33 33 31 30 29 28 28 27 27 25 24 23 21 20 20 21 22 23 25 25 26 28 26 28 27 29 28 31 29
4 3 9 5 0 -3 -3 5 21 21 22 22 22 24 25 27 28 30 32 31 31 31 30 28 28 27 26 25 24 23 22 20 19 19 20 21 22 22 22 23 25 28 25 28 25 26 25 28 29
7 5 7 5 2 8 9 10 25 24 24 22 22 24 27 27 30 31 30 30 29 29 28 26 26 25 24 22 22 22 21 19 18 19 20 21 21 21 21 22 24 26 25 26 25 24 23 23 28
Wind_Speed
18 12 13 9 10 12 14 18 15 15 14 11 11 16 28 30 21 8 16 19 14 17 13 12 11 10 9 7 7 6 7 6 5 6 6 6 6 5 5 5 4 5 4 3 3 3 3 5 5
13 7 11 13 4 13 14 14 14 13 10 4 4 19 25 26 25 17 20 18 13 13 13 13 10 9 8 8 6 5 4 4 2 3 5 6 6 5 6 6 6 6 5 5 5 5 5 4 4
12 11 15 5 11 14 13 11 14 12 10 7 18 24 13 16 20 11 18 16 15 17 17 12 12 11 11 9 8 7 5 3 2 1 2 3 4 5 6 7 8 8 7 7 7 7 6 5 5
7 9 9 7 11 10 11 9 8 9 14 10 23 19 19 23 13 17 16 16 15 16 15 14 14 13 12 12 11 9 8 7 6 6 5 4 5 7 8 8 9 9 10 10 10 8 7 7 7
13 15 1 10 11 10 11 7 9 13 13 25 25 23 23 19 19 18 20 19 18 17 16 16 14 14 15 16 14 12 10 10 9 9 9 10 10 10 10 10 11 12 13 13 12 11 11 11 10
14 9 9 10 10 12 10 9 8 17 15 18 27 19 17 17 21 22 23 24 23 21 19 16 15 14 16 17 16 14 12 12 11 11 11 12 12 13 13 14 13 14 15 16 17 17 16 15 15
20 11 8 5 9 14 9 10 14 18 16 20 21 22 14 19 19 22 25 26 27 27 26 24 24 16 17 22 13 13 11 10 10 11 12 14 15 17 17 16 16 17 19 19 18 19 18 19 20
14 8 5 3 4 15 8 15 19 20 21 16 15 14 17 16 18 21 22 24 26 27 27 24 22 22 18 19 16 11 12 11 12 13 17 17 19 19 21 19 19 21 22 21 21 18 20 20 18
7 13 4 9 6 14 11 18 20 24 26 30 28 23 18 17 17 19 22 24 24 25 25 25 25 22 20 19 18 17 19 19 20 21 24 22 20 18 19 18 20 21 18 19 19 20 22 22 23
12 6 13 8 8 9 7 13 21 22 25 26 25 21 20 19 20 21 22 24 25 25 25 25 24 25 22 21 19 18 18 18 17 19 23 20 20 21 24 18 15 17 20 22 22 24 26 23 22
10 13 9 7 7 16 16 19 16 21 24 21 22 21 21 21 21 22 23 23 24 24 23 25 24 22 24 21 19 17 17 18 17 19 20 19 19 19 19 19 20 20 16 14 17 20 17 21 21
17 16 13 14 20 19 20 23 25 24 22 20 21 20 20 21 22 22 22 21 22 23 24 24 24 23 21 19 19 19 19 18 18 19 20 19 19 20 20 20 23 20 22 15 20 16 19 24 28
19 19 19 20 21 20 19 19 20 21 18 18 19 19 20 20 20 20 20 21 20 22 22 22 22 22 21 19 19 17 17 18 18 19 21 21 23 20 22 23 23 22 22 22 22 21 20 18 18
14 18 18 19 19 18 18 15 16 16 15 16 16 17 18 19 19 19 20 20 20 21 21 20 20 21 21 19 19 17 16 19 19 18 19 21 21 20 22 23 24 23 24 25 25 24 22 17 14
18 18 15 15 12 18 25 17 15 14 13 14 14 16 18 20 20 21 19 19 19 20 21 20 20 22 23 19 20 18 18 20 20 19 19 22 22 22 24 23 23 24 26 28 25 24 23 23 21
11 10 15 9 12 13 11 12 11 10 11 11 11 14 15 18 20 21 20 19 20 20 20 20 22 24 25 22 20 20 19 20 18 19 19 25 25 24 23 23 23 25 25 25 25 25 27 26 26
9 9 1 11 6 2 11 16 10 9 8 9 11 12 13 16 19 20 20 20 19 21 22 22 21 23 25 23 21 21 21 21 21 21 21 24 24 25 24 21 19 22 22 22 22 24 23 25 26
5 2 4 9 10 4 8 13 14 10 9 8 9 9 12 15 17 18 20 20 20 21 20 20 22 24 22 20 19 19 19 19 19 19 20 23 23 26 22 20 23 21 22 20 20 23 20 20 22
5 2 8 7 5 7 11 15 14 11 9 8 6 9 11 14 15 17 18 18 19 19 20 24 22 22 22 21 21 21 21 19 18 18 21 23 24 24 24 22 24 22 20 21 22 21 22 20 20
2 2 7 3 4 5 12 12 12 9 6 5 6 8 11 13 15 17 18 18 20 21 22 21 20 22 21 21 20 20 19 18 18 19 20 23 24 21 22 24 22 22 21 21 22 23 20 19 19
4 6 4 5 6 7 11 13 15 11 11 8 6 7 10 12 14 17 17 19 19 20 19 18 19 22 22 23 20 20 19 18 19 20 20 22 22 21 20 22 21 21 20 19 21 20 22 21 18
5 3 5 6 9 5 16 11 21 18 13 8 5 7 10 12 14 15 15 16 18 17 18 20 22 22 21 22 21 22 20 21 21 21 21 21 22 21 21 22 21 21 19 21 20 19 18 17 20
5 2 6 9 13 14 11 10 8 22 15 11 5 6 9 10 14 15 17 15 15 18 19 19 18 20 20 20 18 19 20 19 18 19 21 22 20 21 21 23 23 21 19 21 21 21 19 17 18
1 5 5 9 12 15 18 11 17 19 12 12 5 6 7 10 12 13 14 14 13 15 17 16 18 18 19 18 19 18 20 20 20 21 18 18 19 19 23 27 23 21 22 22 21 21 21 20 19
7 9 9 11 9 9 6 7 8 12 11 8 4 5 8 10 11 13 14 14 15 16 15 17 18 18 20 20 20 20 20 19 19 21 20 19 20 22 23 24 24 21 23 22 22 19 21 21 19
6 7 8 7 10 11 10 6 9 12 10 7 4 4 7 10 11 12 14 15 18 14 17 16 17 18 19 19 19 18 20 18 19 20 20 18 16 17 22 21 23 24 23 22 22 18 17 20 20
3 5 6 9 15 9 8 8 10 11 9 5 3 5 8 10 11 12 13 16 13 17 16 16 18 17 18 18 17 18 18 18 18 19 19 18 16 17 20 22 24 23 27 24 24 19 18 21 20
6 5 5 6 6 9 9 14 11 13 10 5 2 6 8 9 11 12 14 14 15 15 15 15 17 18 17 17 16 17 18 20 17 17 19 20 20 20 19 21 23 21 22 23 23 20 20 19 20
5 8 4 6 7 8 13 4 6 8 6 3 4 6 8 8 10 11 10 11 12 12 13 14 15 16 15 14 14 16 17 17 18 18 19 20 20 20 21 21 23 22 24 23 23 22 21 23 21
7 9 6 6 4 7 8 9 5 8 8 2 4 5 5 8 8 7 7 10 10 12 13 13 14 14 13 13 14 15 17 18 18 18 19 20 20 19 20 20 22 23 23 24 24 24 23 21 22
Wind_Direction
271 243 236 248 246 74 45 52 43 41 54 69 42 70 78 48 20 58 48 17 42 74 103 92 81 81 74 67 63 74 100 121 128 147 155 165 176 181 189 194 219 230 237 249 275 277 287 311 319
268 234 242 262 290 60 59 38 42 46 68 114 60 63 60 47 26 54 23 16 46 77 82 78 73 78 69 62 53 49 44 46 70 148 169 183 190 201 203 211 216 223 229 244 254 268 276 271 274
254 238 260 291 35 50 61 43 32 65 44 10 85 47 37 353 38 32 18 30 42 57 54 66 64 63 53 41 34 22 17 6 352 257 224 222 217 228 235 232 223 224 234 243 239 235 253 270 271
236 215 244 53 77 57 51 54 5 38 35 25 97 66 64 40 34 33 29 37 44 53 68 61 56 55 52 39 26 14 360 348 336 320 303 279 259 249 240 241 251 256 246 229 228 237 239 223 233
237 256 243 65 92 72 57 34 25 47 53 57 82 85 68 47 55 46 45 48 50 40 64 73 68 53 44 31 25 17 5 353 341 328 316 304 296 280 270 260 247 237 239 242 240 231 219 218 220
251 287 236 116 96 87 47 36 30 46 71 30 104 90 61 56 57 55 53 54 57 57 51 51 92 81 63 41 23 14 8 358 345 333 321 309 300 293 285 276 272 268 261 250 237 225 224 220 219
255 277 12 357 107 90 19 38 12 74 40 32 76 83 74 62 64 70 70 64 58 60 57 43 46 80 83 54 43 36 24 7 349 333 322 315 301 287 276 271 267 264 259 258 256 261 246 231 218
285 280 252 19 81 77 59 57 46 60 34 65 32 71 73 74 72 66 65 65 63 58 45 47 44 40 43 40 45 42 22 358 343 342 356 320 289 285 273 266 267 255 255 257 260 263 260 255 249
263 260 98 62 3 76 95 84 79 77 79 73 74 83 80 73 69 69 65 57 53 52 53 41 36 28 29 32 32 26 23 24 22 10 359 343 353 341 340 329 342 326 289 270 263 267 264 261 255
310 346 58 30 83 90 97 110 93 86 84 83 84 81 75 70 64 60 57 53 49 47 43 46 36 26 17 27 19 18 23 15 15 14 3 355 349 346 332 333 324 351 344 324 283 260 252 252 255
8 77 77 99 87 95 81 76 119 91 80 80 84 79 69 63 58 52 51 51 48 41 40 36 34 28 18 17 12 17 13 7 4 12 11 359 350 352 343 330 337 326 325 341 348 335 315 272 251
86 78 94 96 83 86 93 88 82 86 88 85 82 78 73 64 54 47 42 41 41 39 30 29 27 20 18 10 10 3 3 4 358 3 11 1 355 351 344 337 330 324 324 342 329 323 323 324 336
102 97 92 93 94 94 98 89 97 94 94 90 84 75 65 57 53 47 43 35 37 34 31 21 25 15 10 4 358 358 7 -0 350 0 4 6 354 351 343 338 326 329 324 325 324 314 313 313 316
132 105 108 112 115 112 105 112 110 105 101 89 79 74 66 57 46 41 35 33 25 27 24 17 15 13 2 3 353 347 12 345 352 360 358 12 352 353 344 335 335 330 339 334 314 313 311 307 297
126 122 123 124 119 128 116 98 105 119 111 100 91 77 61 51 43 36 29 25 29 24 16 12 7 12 358 0 349 348 10 344 352 356 352 7 352 352 343 339 334 339 338 320 318 319 317 314 308
187 193 159 75 180 173 239 123 134 138 119 97 87 70 61 50 42 34 28 23 25 21 13 10 11 7 355 357 352 351 357 343 349 350 352 3 346 353 346 339 340 339 330 323 327 330 333 323 315
188 260 25 112 35 172 216 131 155 145 124 106 80 67 61 49 42 34 30 19 18 22 12 7 9 9 357 352 355 355 348 345 347 356 9 355 348 352 352 339 339 336 334 338 332 327 325 323 317
82 204 132 15 32 157 134 130 159 150 140 103 82 71 56 43 38 32 23 20 22 20 10 5 11 14 356 353 352 350 345 344 349 357 1 356 357 354 346 344 344 344 343 333 335 326 329 316 314
23 347 86 114 68 102 136 150 154 152 153 133 93 62 47 35 36 27 22 22 23 17 11 24 10 15 358 355 354 351 347 349 358 358 356 358 360 355 350 349 346 344 340 334 337 330 326 326 325
80 123 109 90 148 201 159 155 153 163 114 99 89 60 37 24 26 25 18 26 24 21 16 22 9 8 5 359 354 349 346 350 2 357 357 359 358 356 353 350 344 342 338 338 342 336 334 326 331
45 340 172 333 167 246 186 186 175 156 147 133 97 54 38 26 20 20 20 29 22 19 19 13 8 15 11 5 357 355 355 356 358 356 358 352 357 356 354 350 345 340 342 337 337 334 336 329 330
233 54 289 184 217 244 201 300 188 169 167 167 115 45 25 18 22 19 19 26 16 16 20 19 16 12 10 11 2 2 358 358 355 357 356 353 357 357 354 348 347 350 345 340 338 336 335 332 328
67 319 260 241 238 277 215 251 169 164 179 169 113 51 21 18 23 18 14 39 20 16 23 18 7 11 11 9 11 5 358 355 349 358 358 352 0 354 354 350 346 347 350 343 340 338 341 339 327
140 231 236 252 250 259 259 209 150 176 203 137 108 49 18 21 21 20 24 26 32 32 23 3 7 10 10 2 15 6 357 351 350 358 4 356 354 353 356 350 345 348 355 348 348 344 346 346 335
228 256 264 227 198 254 123 209 57 94 78 90 75 27 20 21 22 18 20 16 33 35 9 17 10 9 10 7 8 4 352 359 359 360 1 9 352 355 351 345 349 351 352 352 350 347 351 347 342
299 305 297 301 321 328 160 271 113 112 113 114 87 36 12 19 22 19 23 17 29 21 26 15 11 8 11 7 359 358 351 5 5 4 2 10 358 345 350 346 345 347 350 353 353 349 354 348 349
105 259 9 289 268 271 250 106 127 148 145 142 78 27 18 17 18 22 29 32 10 29 17 12 8 9 9 7 357 360 0 3 6 3 2 2 9 357 348 350 350 0 356 352 348 351 353 351 347
273 360 261 201 288 298 299 287 95 173 175 143 87 18 20 15 20 32 43 19 21 18 10 7 7 7 9 2 3 352 358 357 7 6 4 1 0 3 356 356 353 356 360 350 348 353 354 350 353
192 224 248 300 289 295 303 2 44 136 130 135 49 31 21 20 23 36 38 31 24 14 6 4 10 6 2 357 353 353 0 360 3 7 5 0 357 1 359 359 354 355 6 354 353 348 357 354 354
280 280 272 276 293 255 280 297 117 132 132 81 49 47 36 44 39 47 28 31 14 14 6 7 4 358 352 358 357 3 357 3 5 6 4 359 359 360 357 3 358 357 3 356 357 350 355 358 351